Погода в Демянске

Россия / Новгородская область     57°38′34″N   32°27′51″E
темп.,
°C
ветер,
м/с
пор.,
м/с
влажн.,
%
обл.,
%
осадки,
мм/ч
давл.,
гПа
погр.,
м
26 октября, вт
вт2600:00+2юз41388100 0.0 1021454
03:00+2юз41286100 0.0 1020431
06:00+2ююз41285100 0.0 1018422
09:00+2ююз41284100 0.0 1017479
12:00+5юз41175100 0.0 1016548
15:00+6юз41073100 0.0 1015601
18:00+4ююз41178100 0.0 1015458
21:00+3ююз41182100 0.0 1014418
27 октября, ср
ср2700:00+3ююз41184100 0.0 1012407
03:00+3ююз41285100 0.0 1010459
06:00+5юз51285100 0.1 1008638
09:00+5юз41294100 1.6 1008667
12:00+7зюз41090100 0.2 1009915
15:00+7з41184100 0.4 1010862
18:00+6зюз41188100 0.2 1011647
21:00+6юз41088100 0.3 1011476
28 октября, чт
чт2800:00+5ююз41093100 0.0 1010369
03:00+6ю41195100 0.8 1007547
06:00+8юз51395100 1.9 1005855
09:00+10з51190100 2.4 10061016
12:00+9зсз51181100 0.4 10101313
15:00+9зсз51174100 0.4 10121194
18:00+7ссз41087100 0.1 1016690
21:00+6ссв2491100 0.1 1019364
29 октября, пт
пт2900:00+6в1391100 0.0 1021198
03:00+6юв2490100 0.0 1023199
06:00+6ююв3891100 0.4 1023365
09:00+6ююв41187100 0.6 1023467
12:00+8ю41087100 0.1 1023477
15:00+10юз4885100 0.1 1023611
18:00+9ююз411935 0.0 1023346
21:00+8ююз4129327 0.0 1023325
30 октября, сб
сб3000:00+8ююз3119325 0.0 1023346
03:00+9ююз4129288 0.0 1023412
06:00+9ююз41392100 0.0 1022480
09:00+9ююз5149199 0.0 1022522
12:00+12ююз51479100 0.0 1021709
15:00+13ююз5137490 0.0 1020838
18:00+11ююз5148169 0.0 1020708
21:00+10ююз5148477 0.0 1020711